Weather History for KENW - June, 2013

Change the Weather History Date:

Tuesday, June 25, 2013

  Actual Average Record
Temperature  
Mean Temperature 74 °F -  
Max Temperature 82 °F 74 °F 101 °F (1988)
Min Temperature 66 °F 55 °F 41 °F (1982)
Cooling Degree Days 9    
Growing Degree Days 24 (Base 50)    
Moisture  
Dew Point 66 °F    
Average Humidity 86    
Maximum Humidity 94    
Minimum Humidity 69    
Precipitation  
Precipitation 1.19 in - - ()
Sea Level Pressure  
Sea Level Pressure 29.89 in    
Wind  
Wind Speed 8 mph (SW)    
Max Wind Speed 23 mph    
Max Gust Speed 31 mph    
Visibility 7 miles    
Events Rain , Thunderstorm    
Averages and records for this station are not official NWS values.
T = Trace of Precipitation, MM = Missing Value Source: NWS Daily Summary

Daily Weather History Graph

Daily Weather History Graph

Search for Another Location

Airport or City:

Trip Planner

Search our weather history database for the weather conditions in past years. The results will help you decide how hot, cold, wet, or windy it might be!

Date:

Astronomy

Jun. 25, 2013 Rise Set
Actual Time 5:15 AM CDT 8:33 PM CDT
Civil Twilight 4:40 AM CDT 9:08 PM CDT
Nautical Twilight 3:55 AM CDT 9:53 PM CDT
Astronomical Twilight 2:59 AM CDT 10:49 PM CDT
Moon 10:14 PM CDT 7:58 AM CDT
Length of Visible Light 16h 28m
Length of Day
15h 18m
Waning Gibbous, 92% of the Moon is Illuminated
Jun 25
Waning Gibbous
Jun 29
Last Quarter
Jul 8
New
Jul 15
First Quarter
Jul 22
Full

Hourly Weather History & Observations

Time (CDT) Temp. Heat Index Dew Point Humidity Pressure Visibility Wind Dir Wind Speed Gust Speed Precip Events Conditions
12:53 AM 68.0 °F - 64.0 °F 87% 29.91 in 10.0 mi SW 5.8 mph - N/A   Mostly Cloudy
1:53 AM 68.0 °F - 64.0 °F 87% 29.89 in 10.0 mi South 4.6 mph - N/A   Mostly Cloudy
2:40 AM 69.8 °F - 64.4 °F 83% 29.96 in 10.0 mi West 23.0 mph 31.1 mph N/A Thunderstorm Mostly Cloudy
2:48 AM 68.0 °F - 64.4 °F 88% 29.97 in 1.8 mi West 19.6 mph 31.1 mph 0.15 in Rain , Thunderstorm Light Thunderstorms and Rain
2:53 AM 66.9 °F - 64.0 °F 90% 29.96 in 0.8 mi West 17.3 mph 29.9 mph 0.27 in Rain , Thunderstorm Heavy Thunderstorms and Rain
2:58 AM 66.2 °F - 64.4 °F 94% 29.95 in 1.0 mi West 10.4 mph 28.8 mph 0.09 in Rain , Thunderstorm Heavy Thunderstorms and Rain
3:06 AM 66.2 °F - 64.4 °F 94% 29.94 in 1.8 mi West 9.2 mph - 0.16 in Rain , Thunderstorm Heavy Thunderstorms and Rain
3:11 AM 66.2 °F - 64.4 °F 94% 29.95 in 3.0 mi WSW 11.5 mph - 0.17 in Rain , Thunderstorm Thunderstorms and Rain
3:48 AM 66.2 °F - 62.6 °F 88% 29.94 in 6.0 mi WSW 8.1 mph - 0.23 in Rain , Thunderstorm Light Thunderstorms and Rain
3:53 AM 66.0 °F - 64.0 °F 93% 29.91 in 7.0 mi Calm Calm - 0.24 in Rain , Thunderstorm Light Thunderstorms and Rain
4:26 AM 66.2 °F - 64.4 °F 94% 29.91 in 8.0 mi Calm Calm - 0.04 in Rain , Thunderstorm Light Rain
4:48 AM 66.2 °F - 64.4 °F 94% 29.94 in 1.8 mi West 8.1 mph - 0.13 in Rain , Thunderstorm Heavy Thunderstorms and Rain
4:53 AM 66.0 °F - 64.0 °F 93% 29.93 in 1.5 mi West 8.1 mph - 0.15 in Rain , Thunderstorm Heavy Thunderstorms and Rain
5:11 AM 66.2 °F - 64.4 °F 94% 29.92 in 3.0 mi Calm Calm - 0.12 in Rain , Thunderstorm Light Rain
5:36 AM 66.2 °F - 64.4 °F 94% 29.93 in 0.8 mi Calm Calm - 0.35 in Rain , Thunderstorm Heavy Thunderstorms and Rain
5:47 AM 66.2 °F - 64.4 °F 94% 29.93 in 2.0 mi SSW 4.6 mph - 0.40 in Rain , Thunderstorm Light Thunderstorms and Rain
5:53 AM 66.0 °F - 64.0 °F 93% 29.93 in 8.0 mi SSW 5.8 mph - 0.40 in Rain , Thunderstorm Light Thunderstorms and Rain
6:13 AM 66.2 °F - 64.4 °F 94% 29.93 in 10.0 mi Calm Calm - 0.00 in Rain Light Rain
6:53 AM 66.9 °F - 64.9 °F 93% 29.90 in 10.0 mi South 6.9 mph - 0.00 in   Scattered Clouds
7:23 AM 68.0 °F - 64.4 °F 88% 29.90 in 10.0 mi SSE 5.8 mph - N/A   Scattered Clouds
7:53 AM 68.0 °F - 64.9 °F 90% 29.90 in 10.0 mi South 8.1 mph - N/A   Overcast
8:53 AM 69.1 °F - 64.9 °F 87% 29.94 in 10.0 mi SSW 10.4 mph 19.6 mph N/A   Mostly Cloudy
9:53 AM 69.1 °F - 64.9 °F 87% 29.93 in 4.0 mi SW 8.1 mph - 0.10 in Rain Rain
10:05 AM 69.8 °F - 66.2 °F 88% 29.92 in 5.0 mi SSW 8.1 mph - 0.02 in Rain , Thunderstorm Light Thunderstorms and Rain
10:37 AM 69.8 °F - 66.2 °F 88% 29.89 in 10.0 mi South 10.4 mph - 0.03 in   Mostly Cloudy
10:53 AM 70.0 °F - 66.0 °F 87% 29.87 in 10.0 mi South 10.4 mph - 0.03 in   Mostly Cloudy
11:53 AM 73.0 °F - 68.0 °F 84% 29.87 in 10.0 mi South 5.8 mph - N/A   Partly Cloudy
12:53 PM 75.9 °F - 69.1 °F 79% 29.89 in 10.0 mi WNW 6.9 mph - N/A   Partly Cloudy
1:02 PM 75.2 °F - 69.8 °F 83% 29.89 in 10.0 mi WNW 6.9 mph - N/A   Partly Cloudy
1:53 PM 79.0 °F - 69.1 °F 72% 29.86 in 10.0 mi WSW 8.1 mph - N/A   Scattered Clouds
2:53 PM 82.0 °F 86.3 °F 71.1 °F 69% 29.86 in 10.0 mi WSW 8.1 mph - N/A   Partly Cloudy
3:53 PM 81.0 °F 84.9 °F 71.1 °F 72% 29.84 in 10.0 mi West 4.6 mph - N/A   Clear
4:53 PM 81.0 °F 84.9 °F 71.1 °F 72% 29.83 in 10.0 mi West 4.6 mph - N/A   Clear
5:53 PM 80.1 °F 83.8 °F 72.0 °F 76% 29.82 in 10.0 mi Calm Calm - N/A   Clear
6:39 PM 80.6 °F 85.4 °F 73.4 °F 79% 29.84 in 10.0 mi Calm Calm - N/A   Mostly Cloudy
6:53 PM 75.0 °F - 68.0 °F 79% 29.83 in 10.0 mi East 5.8 mph - N/A   Mostly Cloudy
7:00 PM 75.2 °F - 68.0 °F 78% 29.84 in 10.0 mi East 6.9 mph - N/A   Mostly Cloudy
7:53 PM 71.1 °F - 66.0 °F 84% 29.84 in 7.0 mi East 5.8 mph - N/A   Mostly Cloudy
8:22 PM 71.6 °F - 66.2 °F 83% 29.84 in 4.0 mi East 5.8 mph - N/A   Haze
8:53 PM 70.0 °F - 64.9 °F 84% 29.83 in 6.0 mi SSE 6.9 mph - N/A   Haze
9:53 PM 69.1 °F - 64.9 °F 87% 29.84 in 6.0 mi East 5.8 mph - N/A   Partly Cloudy
10:53 PM 69.1 °F - 64.9 °F 87% 29.84 in 7.0 mi Calm Calm - N/A   Partly Cloudy
11:29 PM 69.8 °F - 66.2 °F 88% 29.84 in 7.0 mi SSE 4.6 mph - N/A   Mostly Cloudy
11:53 PM 70.0 °F - 66.0 °F 87% 29.83 in 6.0 mi SE 3.5 mph - N/A   Mostly Cloudy